Content
SEND FEEDBACK

Daily
Averages
Monthly
Summary
United States of America

STEUBENVILLE, OHIO


Home > North America > United States > Ohio
Elevation: 917 feet     Latitude: 40 22N     Longitude: 080 37W

WEATHER
 
SELECT A DAY
Number of Records: 197,954;   Date Range: 1/1/95 - 9/21/14
 
SHARE

PRINT THIS DATA

[ ← Previous Day ]
WEATHER ALMANAC - JANUARY 31, 2013
[ Next Day → ]
[ °C ]   °F
Weather ElementAverageHighLow
Temperature27.2 °F37.9 °F (12:51 am)21.9 °F (11:51 pm)
Dewpoint19.7 °F34 °F (12:51 am)9 °F (3:51 pm)
Humidity73.7 %93 % (5:22 am)53 % (3:51 pm)
Barometer29.65 in29.88 in (9:51 pm)29.30 in (12:51 am)
Wind Speed17.2 mph29.9 mph (6:13 am)
Wind Gust42.6 mph (1:51 am)
Weather ElementAverage
Visibility5.9 mi
Wind DirectionWSW (263.4 °)

Weather ElementTotal
Precipitation0.05 in
Heating Degree Days35.1 (Base 65)
Averaged from 41 records on January 31, 2013
WEATHER CONDITIONS BREAKOUT
WIND DIRECTION BREAKOUT
WEATHER BY HOUR - JANUARY 31, 2013
[ °C ]   °F
Local TimeTemperatureDewpointHumidityBarometerVisibilityWind DirectionWind SpeedGust SpeedPrecipitationEventsConditions
12:51 AM37.9 °F34.0 °F86 %29.30 in10.0 miWest (270°)27.6 mph36.8 mph0.01 inRainLight Rain
1:16 AM37.4 °F32.0 °F81 %29.31 in10.0 miWest (260°)16.1 mph28.8 mph0.00 inRainLight Rain
1:51 AM36.0 °F30.9 °F82 %29.36 in5.0 miWest (260°)19.6 mph42.6 mph0.00 inRain-SnowLight Rain
2:35 AM33.8 °F28.4 °F81 %29.36 in9.0 miWest (270°)25.3 mph36.8 mph0.00 inSnowLight Snow
2:51 AM35.1 °F27.0 °F72 %29.39 in10.0 miWest (270°)20.7 mph33.4 mph0.00 inSnowLight Snow
3:51 AM30.9 °F28.0 °F89 %29.44 in5.0 miWest (270°)21.9 mph31.1 mph0.00 inSnowLight Snow
4:43 AM30.2 °F26.6 °F86 %29.42 in0.5 miWest (270°)17.3 mph25.3 mph0.00 inFog-SnowSnow
4:51 AM30.9 °F28.0 °F89 %29.47 in0.5 miWest (270°)21.9 mph31.1 mph0.00 inFog-SnowSnow
5:22 AM30.2 °F28.4 °F93 %29.45 in4.0 miWest (270°)15.0 mph20.7 mph0.01 inSnowLight Snow
5:28 AM30.2 °F26.6 °F86 %29.45 in4.0 miWest (270°)16.1 mph25.3 mph0.01 inSnowLight Snow
5:37 AM30.2 °F23.0 °F75 %29.46 in7.0 miWest (270°)16.1 mph26.5 mph0.01 inSnowLight Snow
5:51 AM30.9 °F23.0 °F72 %29.50 in4.0 miWest (260°)19.6 mph29.9 mph0.01 inSnowLight Snow
6:13 AM28.4 °F24.8 °F86 %29.49 in0.5 miWest (280°)29.9 mph38.0 mph0.00 inSnowLight Snow
6:51 AM30.0 °F21.0 °F69 %29.56 in5.0 miWest (270°)23.0 mph36.8 mph0.00 inSnowLight Snow
7:51 AM28.0 °F17.1 °F63 %29.61 in7.0 miWest (270°)20.7 mph35.7 mph0.00 inSnowLight Snow
8:33 AM26.6 °F17.6 °F69 %29.60 in7.0 miWest (270°)20.7 mph28.8 mph0.00 inSnowLight Snow
8:51 AM27.0 °F16.0 °F63 %29.65 in9.0 miWest (260°)23.0 mph34.5 mph0.00 inSnowLight Snow
9:51 AM25.0 °F12.0 °F58 %29.70 in9.0 miWest (260°)15.0 mph29.9 mph0.00 inSnowLight Snow
10:58 AM24.8 °F15.8 °F69 %29.67 in3.0 miWSW (250°)17.3 mph26.5 mph0.00 inSnowLight Snow
11:17 AM24.8 °F15.8 °F69 %29.68 in1.5 miWest (260°)17.3 mph31.1 mph0.00 inSnowLight Snow
11:21 AM24.8 °F15.8 °F69 %29.68 in1.0 miWest (270°)17.3 mph31.1 mph0.00 inSnowLight Snow
11:37 AM24.8 °F17.6 °F74 %29.68 in7.0 miWest (270°)18.4 mph29.9 mph0.00 inSnowLight Snow
11:51 AM24.1 °F17.1 °F75 %29.73 in4.0 miWest (270°)19.6 mph31.1 mph0.00 inSnowLight Snow
12:13 PM24.8 °F19.4 °F80 %29.69 in1.0 miWSW (250°)11.5 mph21.9 mph0.00 inSnowLight Snow
12:27 PM26.6 °F17.6 °F69 %29.68 in7.0 miWest (270°)19.6 mph32.2 mph0.00 inSnowLight Snow
12:42 PM26.6 °F14.0 °F59 %29.69 in1.0 miWSW (250°)20.7 mph41.4 mph0.00 inSnowLight Snow
12:51 PM23.0 °F17.1 °F78 %29.74 in7.0 miWest (270°)21.9 mph36.8 mph0.00 inSnowLight Snow
1:51 PM25.0 °F10.9 °F55 %29.76 in8.0 miWest (260°)21.9 mph33.4 mph0.00 inSnowLight Snow
2:51 PM25.0 °F14.0 °F63 %29.80 in10.0 miWNW (290°)21.9 mph31.1 mph0.00 inMostly Cloudy
3:51 PM24.1 °F9.0 °F53 %29.83 in8.0 miWSW (250°)20.7 mph34.5 mph0.00 inSnowLight Snow
4:51 PM23.0 °F14.0 °F68 %29.84 in10.0 miWSW (250°)12.7 mph19.6 mph0.00 inMostly Cloudy
5:51 PM23.0 °F14.0 °F68 %29.85 in10.0 miWSW (250°)10.4 mph21.9 mph0.00 inOvercast
6:51 PM24.1 °F16.0 °F71 %29.85 in6.0 miSW (230°)9.2 mph0.00 inSnowLight Snow
7:51 PM25.0 °F16.0 °F69 %29.86 in10.0 miWSW (240°)16.1 mph19.6 mph0.00 inOvercast
8:51 PM24.1 °F15.1 °F69 %29.87 in9.0 miWest (260°)10.4 mph17.3 mph0.00 inSnowLight Snow
9:51 PM24.1 °F16.0 °F71 %29.88 in7.0 miWSW (250°)9.2 mph18.4 mph0.00 inSnowLight Snow
10:14 PM24.8 °F17.6 °F74 %29.81 in2.0 miWest (260°)8.1 mph0.00 inSnowLight Snow
10:40 PM23.0 °F17.6 °F80 %29.82 in3.0 miWest (270°)9.2 mph0.00 inSnowLight Snow
10:51 PM23.0 °F18.0 °F81 %29.88 in3.0 miWest (280°)10.4 mph0.00 inSnowLight Snow
11:14 PM23.0 °F17.6 °F80 %29.81 in7.0 miWSW (250°)8.1 mph0.00 inSnowLight Snow
11:51 PM21.9 °F16.0 °F78 %29.86 in9.0 miWest (280°)5.8 mph0.00 inMostly Cloudy
Hourly data recorded from KPIT, located miles away from Steubenville, Ohio







STORIES FROM OUR PARTNERS